Location: Waldport
(44.4270°N, 124.0680°W)
Time: 04:23:25
(UTC-07:00)

Daily predictions for brighter satellites

Satellite Brightness Start Highest point End
(mag) Time Altitude Azimuth Time Altitude Azimuth Time Altitude Azimuth
Cosmos 1689 Rocket 4.2 00:04:16 20° ENE 00:04:29 20° ENE 00:07:00 10° NNE
Cosmos 389 Rocket 3.0 00:02:56 10° N 00:06:25 47° ENE 00:06:34 47° E
Cosmos 1269 Rocket 4.0 00:01:48 10° NNW 00:07:08 83° WSW 00:08:56 43° SSE
SL-16 R/B 2.2 00:01:41 10° NNW 00:07:24 82° ENE 00:09:36 39° SSE
USA 238 DEB 4.4 00:01:18 10° NNW 00:08:10 51° NE 00:13:14 18° ESE
USA 238 4.4 00:01:24 10° NNW 00:08:15 51° NE 00:13:21 18° ESE
Cosmos 1900 4.2 00:05:56 10° NW 00:10:56 84° WSW 00:12:19 48° SSE
GEOS 3 Rocket 3.9 00:08:44 31° ESE 00:11:14 65° NE 00:16:23 10° NNW
CZ-4B R/B 2.6 00:18:05 33° ENE 00:18:13 33° ENE 00:21:20 10° N
NOSS 2-3 (E) 4.2 00:18:08 45° SE 00:18:50 48° ESE 00:24:13 10° NE
CZ-4C R/B 4.0 00:14:28 10° NNW 00:20:46 37° NE 00:27:44 10° ESE
Cosmos 2297 Rocket 2.4 00:18:30 24° SW 00:22:00 68° WNW 00:27:40 10° NNE
CZ-2C R/B 4.1 00:23:05 10° NE 00:26:55 20° E 00:27:44 20° ESE
Cosmos 2219 Rocket 3.9 00:23:47 10° NW 00:27:49 21° W 00:29:56 17° SW
Cosmos 2181 Rocket 4.3 00:21:59 10° NNW 00:28:15 61° W 00:31:05 33° SSW
Cosmos 1048 Rocket 4.2 00:27:29 10° NNW 00:32:47 63° WSW 00:34:16 45° SSW
Cosmos 1125 Rocket 3.8 00:30:31 32° SW 00:32:59 67° WNW 00:38:18 10° NNE
SeaSat 1 2.5 00:32:01 49° S 00:33:11 64° WSW 00:38:06 10° NNW
BREEZE-M DEB (TANK) 3.3 00:25:26 10° WNW 00:35:17 69° NNE 00:37:12 27° E
Meteor 1-26 Rocket 4.3 00:31:00 10° NNW 00:36:35 72° W 00:38:26 43° SSW
Lacrosse 4 Rocket 1.6 00:32:30 10° NW 00:36:52 59° WSW 00:37:19 56° SW
Cosmos 2184 Rocket 3.9 00:38:04 42° S 00:40:20 78° E 00:46:33 10° N
Cosmos 1603 4.0 00:35:31 10° NNW 00:41:09 62° ENE 00:43:25 36° SE
Aureole 2 Rocket 2.8 00:40:08 10° NNW 00:42:48 56° NNE 00:42:48 56° NNE
Cosmos 1356 Rocket 4.4 00:44:44 32° E 00:44:44 32° E 00:48:18 10° NNE
NOSS 2-3 (C) 3.9 00:44:39 49° SSW 00:46:03 78° SE 00:51:50 10° NE
Cosmos 1238 Rocket 4.4 00:45:42 10° NNE 00:48:58 22° ENE 00:49:30 22° E
ASTEX 1 3.3 00:44:22 10° N 00:49:16 74° E 00:50:14 56° SSE
CZ-4C R/B 3.5 00:53:01 51° W 00:53:01 51° W 00:56:15 10° NNW
ERBS 4.1 00:52:07 16° W 00:54:22 32° NNW 00:57:33 10° NNE
Cosmos 1892 2.8 00:54:41 63° E 00:54:41 63° E 00:58:17 10° NNE
Cosmos 1733 Rocket 3.1 00:55:52 58° SE 00:56:18 62° E 01:00:44 10° NNE
Landsat 5 3.5 00:55:48 65° SSE 00:56:28 89° E 01:01:02 10° NNW
Cosmos 2237 Rocket 4.0 00:54:19 10° WNW 00:58:03 18° W 00:59:39 16° WSW
Coronas F rocket 3.5 01:00:02 23° NE 01:00:02 23° NE 01:01:20 10° NNE
Cosmos 158 Rocket 4.0 00:55:20 10° NNW 01:00:37 68° WSW 01:01:41 53° SSW
Cosmos 372 Rocket 4.3 01:00:16 37° SW 01:02:12 63° WNW 01:07:26 10° NNE
H-2A R/B 2.6 00:58:18 10° N 01:02:30 73° WNW 01:03:08 60° SW
Uosat 12 SS-18 rocket 4.2 01:03:04 60° SSE 01:03:35 64° ESE 01:08:02 10° NE
ALOS 2 2.8 01:03:09 54° SW 01:03:36 57° W 01:07:57 10° NNW
Cosmos 44 3.8 01:05:25 45° SE 01:05:59 47° ESE 01:11:12 10° NE
NOSS 2-3 (D) 4.1 01:05:16 39° SW 01:07:11 77° NW 01:13:01 10° NE
Meteor 2-3 Rocket 4.0 01:06:02 39° SW 01:08:07 65° WNW 01:13:49 10° N
Meteor 1-10 Rocket 4.3 01:06:14 10° N 01:12:14 87° E 01:14:07 46° SSE
Cosmos 1408 4.3 01:14:26 23° E 01:14:26 23° E 01:17:24 10° NE
COSMOS 2455 3.8 01:09:35 10° NW 01:14:45 30° WSW 01:15:49 28° SW
Cosmos 1825 3.6 01:20:10 28° E 01:20:10 28° E 01:23:23 10° NNE
MOS 1-B Rocket 3.7 01:22:20 46° SSE 01:24:10 88° WSW 01:29:48 10° NNW
Helios 1A Rocket 2.9 01:20:00 10° N 01:24:11 78° WNW 01:24:34 70° SW
BREEZE-M DEB (TANK) 4.3 01:21:26 17° WSW 01:24:50 78° NNW 01:40:00 10° ENE
Cosmos 1782 2.7 01:21:19 10° N 01:25:18 80° W 01:25:20 80° WSW
Okean 2 Rocket 4.2 01:28:42 30° ESE 01:29:26 32° E 01:33:26 10° NNE
Cosmos 1782 Rocket 4.3 01:32:19 38° ESE 01:32:50 40° E 01:36:57 10° NNE
Cosmos 1340 Rocket 3.3 01:32:47 45° W 01:33:02 46° WNW 01:36:51 10° N
ATLAS 2AS CENTAUR R/B 4.2 01:28:27 10° WSW 01:35:39 40° NW 01:43:15 10° NNE
Cosmos 1689 Rocket 4.3 01:37:20 21° WNW 01:37:20 21° WNW 01:39:14 10° NW
Cosmos 2251 Rocket 4.1 01:34:29 10° NW 01:39:29 41° WSW 01:40:16 39° SW
Geosat 4.1 01:35:52 10° NNE 01:40:54 74° WNW 01:42:28 44° SW
Cosmos 44 Rocket 4.3 01:38:27 25° WSW 01:41:10 47° NW 01:46:15 10° NNE
Cosmos 1674 Rocket 4.0 01:39:26 10° NNW 01:43:42 46° W 01:44:04 45° WSW
Cosmos 2263 Rocket 2.8 01:42:34 36° SE 01:43:54 42° ESE 01:49:13 10° NE
Nadezhda 3 Rocket 4.1 01:37:58 10° NNW 01:44:05 63° W 01:46:10 41° SSW
CZ-2C R/B 3.3 01:43:44 42° SSE 01:45:48 83° ENE 01:51:27 10° NNW
RESURS DK-1 4.0 01:48:10 23° ESE 01:48:10 23° ESE 01:51:27 10° NE
SL-16 R/B 4.1 01:47:41 10° WNW 01:50:44 15° W 01:51:28 15° WSW
ATLAS 3B R/B 4.0 01:46:02 10° WNW 01:50:51 21° WSW 01:51:44 20° WSW
CZ-4B R/B 3.8 01:51:50 15° W 01:51:50 15° W 01:53:18 10° NW
Cosmos 921 Rocket 3.0 01:51:53 57° WSW 01:52:23 63° WNW 01:56:35 10° NNE
PSLV R/B 3.8 01:52:11 68° SE 01:52:38 79° ENE 01:56:43 10° N
Cosmos 1975 Rocket 3.1 01:49:28 10° N 01:53:52 73° E 01:54:36 58° SE
Cosmos 2084 Rocket 4.0 01:54:30 38° W 01:55:19 44° NW 01:59:00 10° NNE
Cosmos 1867 3.8 01:51:47 10° NNW 01:57:16 67° NE 02:00:32 24° SE
BREEZE-M DEB (TANK) 4.1 01:39:25 10° WSW 01:58:37 89° SSE 02:03:15 10° ENE
USA 238 DEB 4.2 01:52:33 10° NW 01:59:01 40° WSW 02:00:38 35° SW
USA 238 4.2 01:52:39 10° NW 01:59:06 41° WSW 02:00:46 35° SW
Cosmos 1727 Rocket 4.5 01:53:53 10° N 02:00:00 54° ENE 02:03:16 27° SE
Cosmos 1242 Rocket 4.1 01:57:20 10° NNE 02:00:22 27° ENE 02:01:06 25° E
Cosmos 1908 Rocket 3.7 02:01:24 52° WSW 02:02:01 57° WNW 02:06:18 10° N
Cosmos 1184 Rocket 4.1 02:02:48 33° E 02:02:48 33° E 02:05:44 10° NNE
Cosmos 1607 4.2 01:59:11 10° NW 02:05:04 48° WSW 02:06:28 41° SSW
CZ-2C R/B 3.0 02:02:27 10° N 02:07:33 54° WNW 02:09:16 37° SW
Meteor 1-27 Rocket 4.0 02:02:13 10° NNW 02:07:55 55° W 02:09:36 41° SW
CZ-4C R/B 2.9 02:02:48 10° NW 02:09:50 66° WSW 02:13:44 31° SSE
Cosmos 1862 3.5 02:09:36 56° WSW 02:09:55 58° W 02:13:55 10° N
PSLV R/B 4.3 02:07:46 10° NNE 02:11:45 39° E 02:12:33 35° SE
Cosmos 1606 3.6 02:08:14 10° NNW 02:11:41 37° W 02:11:41 37° W
Cosmos 1943 3.3 02:09:42 10° NNW 02:15:16 57° WSW 02:16:47 43° SSW
USA 234 3.4 02:14:30 10° ESE 02:21:01 75° NE 02:27:34 10° NW
CENTAUR R/B 4.0 02:19:55 10° NNW 02:27:17 47° NE 02:35:09 10° ESE
Cosmos 2151 Rocket 3.9 02:26:57 42° SSE 02:28:09 58° E 02:32:33 10° NNE
Cosmos 1238 Rocket 4.3 02:25:41 10° NNW 02:28:44 22° W 02:28:44 22° W
NOSS 3-2 (C) 4.0 02:25:32 10° NW 02:32:59 67° WSW 02:38:30 22° SSE
Okean 3 4.3 02:29:08 10° NNW 02:33:05 36° W 02:33:30 35° WSW
Meteor 1-18 Rocket 4.3 02:39:02 10° N 02:44:42 74° E 02:48:07 25° SSE
NPP 4.1 02:43:45 10° NNE 02:49:01 53° E 02:51:45 27° SSE
Cosmos 1408 4.2 02:48:58 23° W 02:49:29 24° WNW 02:52:36 10° NNW
Cosmos 1190 Rocket 3.9 02:45:36 10° NNW 02:50:52 86° ENE 02:53:56 25° SSE
Gbstr 26 Del rocket 4.4 02:51:08 21° SE 02:51:08 21° SE 02:53:58 10° E
ERS-2 3.2 02:50:00 10° NNE 02:53:28 36° E 02:54:39 28° SE
Cosmos 1825 3.9 02:55:06 20° W 02:55:45 20° WNW 02:58:40 10° NNW
GP-B 3.9 02:51:32 10° NNE 02:55:51 47° E 02:58:13 24° SSE
NOSS 3-2 (A) 4.4 02:49:21 10° NW 02:56:21 42° WSW 03:00:05 27° SSW
CRYOSAT 2 4.4 02:51:41 10° N 02:56:31 69° W 02:58:21 37° SSW
NOSS 3-4 (A) 3.9 02:52:45 24° WSW 02:56:41 62° NW 03:03:16 10° NNE
NOSS 3-4 (C) 3.8 02:52:52 25° WSW 02:56:46 63° NW 03:03:22 10° NNE
SL-16 R/B 4.2 02:51:28 10° ESE 02:56:51 32° ENE 03:02:13 10° N
BREEZE-M TANK 1.6 02:53:08 10° WNW 02:56:52 71° SSW 02:59:22 10° ESE
Cosmos 1812 3.0 02:54:25 10° N 02:58:19 64° E 02:59:55 32° SSE
Cosmos 1371 Rocket 4.2 02:57:49 33° SW 03:00:10 63° WNW 03:05:31 10° NNE
Cosmos 2056 Rocket 3.5 02:59:00 35° SSW 03:01:18 81° WNW 03:06:35 10° NNE
Cosmos 724 4.5 02:55:53 10° NNW 03:02:02 79° NE 03:08:14 10° SE
IRAS Rocket 4.3 02:58:53 10° NNE 03:04:25 74° ESE 03:07:25 28° S
Cosmos 407 Rocket 3.4 03:01:20 10° NNW 03:06:31 86° WSW 03:10:00 21° SSE
Meteor 1-20 Rocket 4.3 03:05:47 27° S 03:09:06 79° E 03:14:54 10° NNE
CZ-2D R/B 4.1 03:04:58 10° NE 03:09:10 22° E 03:13:20 10° SE
SL-27 R/B 2.5 03:06:30 10° NNW 03:10:11 81° ENE 03:11:51 31° SSE
Okean 1 3.3 03:09:19 10° N 03:13:19 84° E 03:15:12 31° SSE
Cosmos 676 Rocket 4.0 03:09:22 10° NNW 03:14:35 84° ENE 03:18:59 14° SSE
Abrixas rocket 2.3 03:22:23 35° WSW 03:23:39 79° NNW 03:27:01 10° ENE
Cosmos 1844 Rocket 3.0 03:21:38 24° S 03:25:03 61° ESE 03:30:39 10° NNE
RESURS DK-1 3.5 03:24:05 23° WSW 03:26:01 34° NW 03:29:51 10° N
USA 161 2.4 03:25:43 21° SE 03:27:17 45° ENE 03:30:07 10° N
Cosmos 2263 Rocket 3.4 03:24:15 17° WSW 03:27:55 33° NW 03:33:03 10° N
IRS-1C 4.2 03:23:09 10° NNE 03:28:32 80° ESE 03:32:00 23° S
SL-24 DEB 4.3 03:25:47 10° N 03:30:23 63° W 03:32:50 27° SSW
Cosmos 1844 4.2 03:29:25 20° S 03:33:14 53° ESE 03:38:50 10° NE
Cosmos 1300 Rocket 3.6 03:32:56 29° SSW 03:35:03 66° W 03:39:25 10° N
Cosmos 1242 Rocket 4.3 03:32:51 10° NW 03:35:13 17° W 03:35:17 17° W
Cosmos 1535 Rocket 4.5 03:32:44 22° SSW 03:36:58 80° W 03:43:17 10° N
Meteor 2-21 4.4 03:33:41 21° S 03:37:57 86° W 03:44:07 10° N
Cosmos 1954 Rocket 3.9 03:36:31 10° NNW 03:41:42 74° WSW 03:46:48 10° SSE
CBERS 1 LM4 rocket 4.3 03:36:59 10° NNE 03:41:57 83° WNW 03:45:06 22° SSW
COSMOS 2406 3.6 03:36:54 10° NW 03:42:23 45° WSW 03:46:27 17° S
NOSS 2-2 (E) 4.1 03:42:29 22° S 03:44:58 52° ESE 03:49:44 10° NE
Cosmos 2278 Rocket 3.0 03:42:34 14° S 03:47:04 46° ESE 03:52:29 10° NE
UNK 4.4 03:42:41 10° SSE 03:47:11 57° ENE 03:51:45 10° N
Cosmos 1602 3.7 03:45:13 22° S 03:47:38 79° E 03:51:30 10° N
ATLAS 5 CENTAUR R/B 3.2 03:41:50 10° NNW 03:47:38 55° NE 03:53:50 10° SE
Cosmos 1892 Rocket 4.3 03:45:43 10° N 03:49:59 52° ENE 03:54:12 10° SSE
Cosmos 614 Rocket 4.5 03:47:39 10° NNW 03:52:48 61° ENE 03:57:51 10° SSE
SL-08 R/B 4.1 03:50:28 21° SSW 03:53:01 35° W 03:57:31 10° NNW
Resurs 1-4 Rocket 2.8 03:48:24 10° NNE 03:53:37 52° E 03:58:45 10° S
Okean 2 4.5 03:52:43 10° N 03:56:41 45° ENE 04:00:37 10° SSE
CZ-4C R/B 4.4 03:54:03 10° WNW 03:57:27 14° WSW 03:58:50 13° WSW
Cosmos 1356 4.4 03:55:43 13° SSE 03:58:43 44° E 04:02:08 10° NNE
Cosmos 1633 2.8 03:57:33 16° S 04:00:22 65° E 04:03:59 10° NNE
Cosmos 2082 Rocket 3.8 03:58:27 10° NNW 04:03:48 38° NE 04:09:06 10° SE
USA 234 3.8 03:58:32 10° SSE 04:04:22 35° SW 04:10:14 10° WNW
ARIANE 5 R/B 2.5 03:59:28 10° NNE 04:04:30 86° ESE 04:08:54 14° SSW
Cosmos 1452 Rocket 3.9 04:03:37 18° SW 04:07:22 50° WNW 04:12:31 10° NNE
COSMOS 2487 2.4 04:05:12 10° NNW 04:08:50 71° WSW 04:12:25 10° SSE
BREEZE-M DEB (TANK) 4.1 04:08:16 11° S 04:09:29 13° SE 04:10:54 10° ESE
Meteor 2-4 Rocket 3.6 04:04:28 10° N 04:09:56 89° E 04:15:16 10° S
ADEOS 4.0 04:07:08 10° N 04:12:11 50° WNW 04:16:20 15° SW
Cosmos 1536 2.8 04:09:09 16° SSW 04:12:24 75° W 04:16:29 10° N
UNKNOWN OBJECT B 3.5 04:11:06 10° NNE 04:15:07 55° E 04:19:08 10° S
Cosmos 1934 Rocket 4.3 04:11:19 15° SSW 04:16:24 52° WNW 04:22:25 10° N
Okean 1 Rocket 4.3 04:13:48 16° SW 04:16:35 28° WNW 04:20:28 10° NNW
CZ-2D R/B 4.5 04:13:41 10° NNE 04:17:29 42° E 04:21:20 10° S
Timation 2 Rocket 4.0 04:11:56 10° NNW 04:18:10 83° ENE 04:24:10 10° SSE
CENTAUR R/B 3.2 04:10:41 10° NW 04:18:16 54° WSW 04:26:14 10° SSE
Cosmos 1420 Rocket 4.1 04:13:54 15° SSW 04:18:24 76° WNW 04:23:42 10° NNE
Cosmos 1461 3.3 04:17:34 14° SSW 04:21:33 75° ESE 04:26:10 10° NE
Okean O Rocket 2.9 04:19:26 10° NNE 04:23:32 38° E 04:27:34 10° SSE
BREEZE-M DEB (TANK) 4.0 04:14:00 10° WNW 04:26:21 60° N 04:29:50 10° E
ERS-2 4.1 04:24:31 10° NNW 04:27:00 17° WNW 04:29:29 10° WSW
Cosmos 1140 Rocket 4.1 04:31:05 10° NW 04:35:46 36° WSW 04:40:25 10° SSW
EO 1 Del DPAF 3.9 04:33:12 10° SSW 04:36:51 38° W 04:40:30 10° NNW
Gbstr 26 Del rocket 2.9 04:33:42 10° WSW 04:37:34 68° NNW 04:41:18 10° NE
Cosmos 1626 Rocket 4.1 04:35:00 10° N 04:39:20 63° E 04:43:41 10° SSE
SL-16 R/B 2.9 04:34:15 10° S 04:40:15 48° W 04:46:15 10° NNW
Cosmos 1025 Rocket 4.0 04:37:22 10° NNW 04:41:04 29° W 04:44:46 10° SSW
Cosmos 1455 Rocket 3.1 04:36:50 10° SSW 04:41:17 75° W 04:45:45 10° N
CZ-2C R/B 3.9 04:37:48 10° SSE 04:42:33 84° ENE 04:47:22 10° NNW
Cosmos 1833 Rocket 3.3 04:42:29 10° NNW 04:48:04 64° ENE 04:53:38 10° SE
CZ-2D R/B 2.5 04:44:15 10° N 04:49:32 54° WNW 04:54:51 10° SSW
USA 129 1.8 04:50:38 10° S 04:52:42 48° W 04:54:44 10° NNW
NOSS 2-2 (D) 4.3 04:51:17 10° WSW 04:55:22 46° NW 05:00:15 10° NNE
Cosmos 1400 Rocket 3.6 04:52:00 10° SW 04:55:34 34° WNW 04:59:13 10° N
Cosmos 2016 Rocket 4.3 04:56:10 10° S 05:02:28 77° E 05:08:43 10° N
